Other Public Products
Issued by NWS Grand Forks, ND

Home | Current Version | Previous Version | Text Only | Print | Product List | Glossary Off
Versions: 1 2 3 4 5 6 7 8 9 10 11 12 13 14 15 16 17 18 19 20 21 22 23 24 25 26 27 28 29 30 31 32 33 34 35 36 37 38 39 40 41 42 43 44 45 46 47 48 49 50

000
FPUS83 KFGF 300031
OPUFGF
PRAIRIE TO PINES WEATHER ROUNDUP
NATIONAL WEATHER SERVICE EASTERN NORTH DAKOTA/GRAND FORKS ND
700 PM CDT WED JUL 29 2015

 **SATELLITE DATA USED TO AUGMENT SKY COVER AT AUTOMATED STATIONS**
 *****  WEATHER ACROSS EASTERN NORTH DAKOTA  *****

CITY           SKY/WX    TMP DP  RH WIND       PRES   REMARKS
GRAND FORKS    MOSUNNY   80  54  40 NW15G31   29.85R
6HR MIN TEMP:  77; 6HR MAX TEMP:  82;

GRAND FORKS AF SUNNY     78  54  43 NW15G25   29.87R
GRAND CITY NWS   N/A     79 N/A N/A NW14        N/A
BUXTON         NOT AVBL
DEVILS LAKE    MOSUNNY   79  54  41 NW18      29.91S
6HR MIN TEMP:  75; 6HR MAX TEMP:  81;

FARGO          SUNNY     80  54  40 W15       29.92R
6HR MIN TEMP:  78; 6HR MAX TEMP:  82;

WAHPETON ARPT  PTCLDY    79  52  38 W9        29.95S
$$

 *****  WEATHER ACROSS CENTRAL AND WESTERN NORTH DAKOTA  *****

CITY           SKY/WX    TMP DP  RH WIND       PRES   REMARKS
JAMESTOWN      SUNNY     78  52  40 W17G25    29.98R
6HR MIN TEMP:  77; 6HR MAX TEMP:  81;

BISMARCK       SUNNY     82  46  28 W16G28    30.03F
6HR MIN TEMP:  78; 6HR MAX TEMP:  83;

MINOT          SUNNY     80  48  32 W21G30    29.98R
6HR MIN TEMP:  77; 6HR MAX TEMP:  82; 6HR PCP: TRACE;

MINOT AFB      SUNNY     81  50  33 W21G26    29.96S
6HR MIN TEMP:  78; 6HR MAX TEMP:  83;

GARRISON         N/A     78  51  38 W13G25    30.01F
6HR MIN TEMP:  73; 6HR MAX TEMP:  80;

WILLISTON      SUNNY     81  43  26 NW21G26   30.06R
6HR MIN TEMP:  78; 6HR MAX TEMP:  84;

DICKINSON      SUNNY     79  44  28 NW18      30.08S
6HR MIN TEMP:  75; 6HR MAX TEMP:  82;

HETTINGER      SUNNY     80  40  23 W14       30.12F
6HR MIN TEMP:  76; 6HR MAX TEMP:  83;

$$

 *****  OTHER OBSERVATIONS NORTHEAST NORTH DAKOTA  *****

CITY           SKY/WX    TMP DP  RH WIND       PRES   REMARKS
WALHALLA       FAIR      77  57  50 MISG      29.84S
LANGDON        FAIR      77  57  50 NW14G25   29.90R
CAVALIER       FAIR      77  57  50 NW14G21   29.84R
GRAFTON        FAIR      77  57  50 NW16G24   29.85S
CANDO          FAIR      75  57  53 NW14      29.92S
FORT TOTTEN      N/A     79  57  46 NW8       29.95S
ROLLA          FAIR      72  55  56 NW16G23   29.94S
RUGBY          NOT AVBL
 ***** THE ABOVE OBSERVATIONS ARE NON NWS ARE NOT QUALITY
        CONTROLLED AND MAY MIS-REPORT RAIN FOR SNOW...
$$

 *****  OTHER OBSERVATIONS SOUTHEAST NORTH DAKOTA *****

CITY           SKY/WX    TMP DP  RH WIND       PRES   REMARKS
COOPERSTOWN    NOT AVBL
VALLEY CITY    FAIR      77  55  47 W13G21    29.97S
OAKES            N/A     77  55  47 W14G22    30.00S
GWINNER        FAIR      79  55  44 W10       29.99S
SHEYENNE NWR     N/A     81  54  38 NW15      29.95S
BUFFALO        NOT AVBL
WYNDMERE       NOT AVBL
 ***** THE ABOVE OBSERVATIONS ARE NON NWS ARE NOT QUALITY
       CONTROLLED AND MAY MIS-REPORT RAIN FOR SNOW...
$$

  *****  WEATHER ACROSS NORTHERN MINNESOTA  *****

CITY           SKY/WX    TMP DP  RH WIND       PRES   REMARKS
FLAG ISLAND    CLOUDY    68  57  68 W17G28    29.74S
WARROAD        PTSUNNY   72  57  60 W8        29.80R
ROSEAU         MOSUNNY   73  55  53 W15G25    29.80R
HALLOCK        SUNNY     77  54  44 NW15      29.82R
THF RVR FALLS  MOSUNNY  N/A N/A N/A W16G28    29.85S
HALSTAD        NOT AVBL
FOSSTON        MOSUNNY   75  54  46 W15G22    29.88S
BAUDETTE       CLOUDY    72  52  49 W21G33    29.77R
6HR MIN TEMP:  66; 6HR MAX TEMP:  75;

WASKISH        MOSUNNY   73  55  53 W21G28    29.81R
CROOKSTON      SUNNY     79  55  44 NW20G28   29.87R
$$
  *****  WEATHER ACROSS CENTRAL AND WEST MINNESOTA  *****

CITY           SKY/WX    TMP DP  RH WIND       PRES   REMARKS
BEMIDJI        MOSUNNY   75  53  45 W21G28    29.86R
PARK RAPIDS    PTSUNNY   77  54  44 W25G35    29.89S
6HR MIN TEMP:  75; 6HR MAX TEMP:  80;

WADENA         MOSUNNY   75  54  46 W10G16    29.92S
DETROIT LAKES  MOSUNNY   77  54  44 W9G20     29.94S
MOORHEAD       SUNNY     77  55  47 W14G23    29.93R
FERGUS FALLS   SUNNY     75  57  53 W12       29.94R
ELBOW LAKE     FAIR      76  57  53 W10G17    29.96S
MORRIS MN      SUNNY     79  55  44 NW14G21   29.98R
STAPLES        MOSUNNY   73  52  46 W13G21    29.92S
WHEATON        SUNNY     75  52  43 W15G21    29.99S
$$
  *****  WEATHER ELSEWHERE ACROSS MINNESOTA  *****

CITY           SKY/WX    TMP DP  RH WIND       PRES   REMARKS
DULUTH         MOSUNNY   75  53  46 W18G31    29.81S
6HR MIN TEMP:  70; 6HR MAX TEMP:  78;

INTRNTL FALLS  CLOUDY    71  55  56 W14G29    29.74R
6HR MIN TEMP:  63; 6HR MAX TEMP:  74; 6HR PCP: TRACE;

ELY            MOSUNNY   72  52  49 W16G24    29.75R
CLOQUET        MOSUNNY   75  48  38 W17G25    29.84R
BRAINERD       MOSUNNY   76  49  38 W20G32    29.90R
6HR MIN TEMP:  75; 6HR MAX TEMP:  79;

HIBBING        MOSUNNY   75  53  46 W16G24    29.80S
6HR MIN TEMP:  66; 6HR MAX TEMP:  76; 6HR PCP: TRACE;

ALEXANDRIA     SUNNY     78  53  41 NW18G28   29.97S
6HR MIN TEMP:  76; 6HR MAX TEMP:  81;

SAINT CLOUD    MOSUNNY   80  54  40 W15G28    29.92S
6HR MIN TEMP:  78; 6HR MAX TEMP:  82;

MINNEAPOLIS    MOSUNNY   81  53  37 W16G30    29.94S
6HR MIN TEMP:  80; 6HR MAX TEMP:  82;

$$

  *****  WEATHER ACROSS SOUTH DAKOTA  *****

CITY           SKY/WX    TMP DP  RH WIND       PRES   REMARKS
SIOUX FALLS    SUNNY     82  55  39 W6        30.07S
6HR MIN TEMP:  79; 6HR MAX TEMP:  83;

BROOKINGS      SUNNY     79  55  44 NW8       30.08S
WATERTOWN      SUNNY     79  50  36 W17G24    30.04F
6HR MIN TEMP:  77; 6HR MAX TEMP:  81;

HURON          SUNNY     83  53  35 NW9       30.04F
6HR MIN TEMP:  82; 6HR MAX TEMP:  86;

SISSETON         N/A     80  55  42 NW10      29.97F
ABERDEEN       SUNNY     83  45  26 NW18G32   30.03R
6HR MIN TEMP:  82; 6HR MAX TEMP:  85;

MITCHELL       SUNNY     85  48  27 NW13      30.07S
PIERRE         SUNNY     86  38  18 W21       30.07S
6HR MIN TEMP:  85; 6HR MAX TEMP:  88;

MOBRIDGE       SUNNY     84  47  27 NW15      30.04F
RAPID CITY     SUNNY     83  42  23 CALM      30.16F
6HR MIN TEMP:  77; 6HR MAX TEMP:  84;

$$

  *****  SOME WEATHER IN NEARBY STATES *****

CITY           SKY/WX    TMP DP  RH WIND       PRES   REMARKS
GLASGOW MT     MOSUNNY   81  41  24 W10       30.07F
6HR MIN TEMP:  76; 6HR MAX TEMP:  83;

GREAT FALLS MT SUNNY     82  35  18 W13G21    30.14F
6HR MIN TEMP:  74; 6HR MAX TEMP:  83;

CHEYENNE WY    MOSUNNY   78  48  34 SE14      30.30S
6HR MIN TEMP:  73; 6HR MAX TEMP:  82;

SCOTTSBLUFF NE SUNNY     86  50  28 E12       30.18F
6HR MIN TEMP:  76; 6HR MAX TEMP:  88;

OMAHA NE       PTSUNNY   82  57  42 W6        30.13F
6HR MIN TEMP:  81; 6HR MAX TEMP:  86;

DES MOINES IA  MOSUNNY   83  54  36 NW9       30.09F
6HR MIN TEMP:  83; 6HR MAX TEMP:  86;

DAVENPORT IA   SUNNY     79  60  52 W8        30.04S
6HR MIN TEMP:  79; 6HR MAX TEMP:  82;

CHICAGO IL     MOSUNNY   82  51  34 NW15      29.97R
6HR MIN TEMP:  82; 6HR MAX TEMP:  88;

EAU CLAIRE WI  MOSUNNY   79  56  45 W10G21    29.91S
6HR MIN TEMP:  79; 6HR MAX TEMP:  82;

LA CROSSE WI   SUNNY     82  54  37 W14       29.95S
6HR MIN TEMP:  82; 6HR MAX TEMP:  85;

$$

  *****  SOME NATIONAL WEATHER *****

CITY           SKY/WX    TMP DP  RH WIND       PRES   REMARKS
LA GUARDIA NY  MOCLDY    88  69  53 S12       29.90S HX  92
6HR MIN TEMP:  88; 6HR MAX TEMP:  95;




USA.gov is the U.S. government's official web portal to all federal, state and local government web resources and services.